DB0SMU-12 Weather Reports


time (UTC)temp
F
wind
direction
speed
knots
gust
knots
rain 1hr
in
rain 24hr
in
rain mn
in
humidity
%
barometer
mb
20260507071848 51 260 11.3 19.1 0.00 0.03 0.00 71 1014.6
20260507071547 51 246 9.6 19.1 0.00 0.03 0.00 73 1014.6
20260507071246 51 237 12.2 19.1 0.00 0.03 0.00 72 1014.5
20260507070942 52 251 11.3 18.2 0.00 0.03 0.00 71 1014.5
20260507070639 52 260 12.2 20.0 0.00 0.03 0.00 71 1014.5
20260507070338 52 245 13.9 20.0 0.00 0.03 0.00 71 1014.4
20260507070037 52 242 13.9 21.7 0.00 0.03 0.00 70 1014.5
20260507065736 53 246 10.4 21.7 0.00 0.03 0.00 70 1014.4
20260507065435 52 249 13.9 26.1 0.00 0.03 0.00 70 1014.4
20260507065135 52 245 13.9 26.1 0.00 0.03 0.00 71 1014.4
20260507064834 52 233 16.5 26.1 0.00 0.03 0.00 72 1014.3
20260507064533 52 240 13.9 20.0 0.00 0.03 0.00 72 1014.3
20260507064232 51 233 15.6 20.0 0.00 0.03 0.00 73 1014.3
20260507063931 51 234 12.2 18.2 0.00 0.03 0.00 73 1014.3
20260507063630 51 232 10.4 18.2 0.00 0.03 0.00 74 1014.3
20260507063329 51 232 12.2 19.1 0.00 0.03 0.00 73 1014.3
20260507063028 51 251 12.2 23.5 0.00 0.03 0.00 73 1014.2
20260507062727 51 254 12.2 23.5 0.00 0.03 0.00 73 1014.2
20260507062426 51 254 13.0 23.5 0.00 0.03 0.00 73 1014.3
20260507062125 51 249 11.3 19.1 0.00 0.03 0.00 73 1014.2
20260507061824 51 242 11.3 21.7 0.00 0.03 0.00 74 1014.2
20260507060922 51 234 13.0 19.1 0.00 0.03 0.00 73 1014.0
20260507060621 51 231 12.2 20.0 0.00 0.03 0.00 75 1014.0
20260507060320 51 256 11.3 20.0 0.00 0.03 0.00 74 1014.0
20260507060019 50 239 12.2 20.0 0.00 0.03 0.00 74 1014.0
20260507055718 50 246 10.4 18.2 0.00 0.03 0.00 73 1014.0
20260507055418 51 246 10.4 19.1 0.00 0.03 0.00 74 1014.0
20260507055117 51 248 12.2 19.1 0.00 0.03 0.00 73 1013.9
20260507054816 51 238 13.0 19.1 0.00 0.03 0.00 73 1014.0
20260507054515 51 246 11.3 19.1 0.00 0.03 0.00 73 1014.0
20260507054214 50 242 12.2 19.1 0.00 0.03 0.00 74 1013.8
20260507053913 50 261 10.4 18.2 0.00 0.03 0.00 73 1013.9
20260507053612 50 239 12.2 18.2 0.00 0.03 0.00 75 1013.9
20260507053311 49 236 10.4 16.5 0.00 0.03 0.00 75 1013.8
20260507053010 49 237 10.4 15.6 0.01 0.03 0.00 75 1013.6
20260507052709 49 238 10.4 15.6 0.01 0.03 0.00 75 1013.6
20260507052408 49 235 10.4 15.6 0.01 0.03 0.00 76 1013.5
20260507052107 49 241 10.4 18.2 0.00 0.02 0.00 76 1013.6
20260507051806 49 255 10.4 18.2 0.00 0.02 0.00 76 1013.5
20260507051505 49 242 11.3 19.1 0.00 0.02 0.00 76 1013.5
20260507051204 49 245 10.4 19.1 0.00 0.02 0.00 76 1013.5
20260507050904 48 237 13.9 19.1 0.00 0.02 0.00 77 1013.3
20260507050603 48 241 12.2 18.2 0.00 0.02 0.00 77 1013.3
20260507050302 48 242 12.2 17.4 0.00 0.02 0.00 78 1013.4
20260507050001 48 233 11.3 15.6 0.00 0.02 0.00 78 1013.4
20260507045700 48 237 10.4 15.6 0.00 0.02 0.00 78 1013.3
20260507045359 48 244 8.7 15.6 0.00 0.02 0.00 79 1013.3
20260507045058 48 249 7.8 13.9 0.00 0.02 0.00 79 1013.4
20260507044757 48 233 8.7 13.9 0.00 0.02 0.00 80 1013.3
20260507044457 47 243 8.7 13.9 0.00 0.02 0.00 80 1013.3
20260507044156 47 235 9.6 13.9 0.00 0.02 0.00 80 1013.3
20260507043855 47 236 7.8 12.2 0.00 0.02 0.00 80 1013.3
20260507043554 47 243 7.8 11.3 0.00 0.02 0.00 80 1013.2
20260507043253 47 235 7.8 10.4 0.00 0.02 0.00 81 1013.1
20260507042952 47 239 7.8 10.4 0.00 0.02 0.00 80 1013.1
20260507042651 47 230 7.0 10.4 0.00 0.02 0.00 80 1013.1
20260507042351 47 236 7.8 12.2 0.00 0.02 0.00 80 1013.1
20260507042050 47 234 7.0 13.0 0.00 0.02 0.00 80 1013.0
20260507041749 47 234 8.7 13.0 0.00 0.02 0.00 80 1013.0
20260507041448 47 235 7.8 13.0 0.00 0.02 0.00 80 1013.0
20260507041147 47 245 7.0 10.4 0.00 0.02 0.00 80 1013.0
20260507040846 47 239 6.1 10.4 0.00 0.02 0.00 80 1012.9
20260507040545 47 249 5.2 10.4 0.00 0.02 0.00 80 1012.8
20260507040245 47 234 6.1 10.4 0.00 0.02 0.00 80 1013.0
20260507035944 47 231 7.0 10.4 0.00 0.02 0.00 80 1012.9
20260507035643 47 238 6.1 10.4 0.00 0.02 0.00 80 1012.9
20260507035342 47 253 5.2 11.3 0.00 0.02 0.00 80 1012.8
20260507035041 47 241 7.0 11.3 0.00 0.02 0.00 80 1012.8
20260507034740 47 239 7.0 11.3 0.00 0.02 0.00 80 1012.8
20260507034437 47 242 6.1 10.4 0.00 0.02 0.00 80 1012.8
20260507034136 47 230 7.8 10.4 0.00 0.02 0.00 80 1012.8
20260507033835 47 233 7.0 9.6 0.00 0.02 0.00 80 1012.6
20260507033534 47 240 5.2 10.4 0.00 0.02 0.00 80 1012.7
20260507033233 47 236 7.0 10.4 0.00 0.02 0.00 80 1012.6
20260507032933 47 236 7.0 10.4 0.00 0.02 0.00 80 1012.6
20260507032632 47 237 7.0 10.4 0.00 0.02 0.00 80 1012.6
20260507032331 47 233 7.8 11.3 0.00 0.02 0.00 80 1012.6
20260507032030 47 231 7.8 11.3 0.00 0.02 0.00 80 1012.6
20260507031729 47 234 7.8 11.3 0.00 0.02 0.00 80 1012.5
20260507031428 47 243 6.1 13.0 0.00 0.02 0.00 80 1012.5
20260507031127 47 231 8.7 13.9 0.00 0.02 0.00 80 1012.4
20260507030826 47 240 9.6 13.9 0.00 0.02 0.00 80 1012.6
20260507030526 47 239 10.4 13.9 0.00 0.02 0.00 80 1012.6
20260507030225 47 230 9.6 13.0 0.00 0.02 0.00 80 1012.5
20260507025924 47 234 8.7 16.5 0.00 0.02 0.00 80 1012.4
20260507025623 47 230 10.4 16.5 0.00 0.02 0.00 80 1012.4
20260507025319 47 238 8.7 16.5 0.00 0.02 0.00 80 1012.4
20260507025018 47 237 11.3 15.6 0.00 0.02 0.00 80 1012.4
20260507024717 47 233 9.6 14.8 0.00 0.02 0.00 81 1012.3
20260507024417 47 247 7.8 12.2 0.00 0.02 0.00 80 1012.3
20260507024116 47 236 8.7 12.2 0.00 0.02 0.00 81 1012.3
20260507023815 47 237 8.7 11.3 0.00 0.02 0.00 81 1012.3
20260507023514 47 233 7.0 10.4 0.00 0.02 0.00 81 1012.3
20260507023213 47 232 6.1 10.4 0.00 0.02 0.00 82 1012.3
20260507022912 46 230 7.0 9.6 0.00 0.02 0.00 82 1012.4
20260507022611 46 236 6.1 7.8 0.00 0.02 0.00 82 1012.4
20260507022310 46 232 5.2 7.0 0.00 0.02 0.00 82 1012.4
20260507022010 46 228 5.2 7.0 0.00 0.02 0.00 82 1012.4
20260507021709 46 224 4.3 7.0 0.00 0.02 0.00 82 1012.3
20260507021408 46 224 6.1 7.8 0.00 0.02 0.00 82 1012.2
20260507021107 46 226 5.2 8.7 0.00 0.02 0.00 82 1012.3
20260507020806 46 228 5.2 8.7 0.00 0.02 0.00 82 1012.3
20260507020505 46 230 5.2 8.7 0.00 0.02 0.00 83 1012.3
20260507020204 46 229 5.2 7.8 0.00 0.02 0.00 83 1012.3
20260507015903 45 229 5.2 10.4 0.00 0.02 0.00 82 1012.3
20260507015602 45 231 5.2 10.4 0.00 0.02 0.00 82 1012.3
20260507015305 45 228 4.3 10.4 0.00 0.02 0.00 82 1012.2
20260507015000 46 225 5.2 7.8 0.00 0.02 0.00 81 1012.3
20260507014700 46 231 5.2 7.8 0.00 0.02 0.00 81 1012.2
20260507014359 46 237 6.1 7.8 0.00 0.02 0.00 81 1012.3
20260507014058 46 239 5.2 7.8 0.00 0.02 0.00 81 1012.2
20260507013757 46 233 5.2 7.8 0.00 0.02 0.00 81 1012.2
20260507013456 46 239 5.2 8.7 0.00 0.02 0.00 81 1012.1
20260507013155 46 238 5.2 8.7 0.00 0.02 0.00 80 1012.1
20260507012854 46 235 6.1 9.6 0.00 0.02 0.00 81 1012.1
20260507012554 46 237 7.0 9.6 0.00 0.02 0.00 81 1012.0
20260507012253 46 233 7.0 9.6 0.00 0.02 0.00 80 1012.1
20260507011952 46 236 7.0 9.6 0.00 0.02 0.00 80 1012.0
20260507011651 46 236 7.8 10.4 0.00 0.02 0.00 80 1012.0
20260507011350 46 232 7.0 10.4 0.00 0.02 0.00 80 1012.1
20260507011049 46 230 7.0 10.4 0.00 0.02 0.00 80 1012.1
20260507010749 46 233 7.0 8.7 0.00 0.02 0.00 79 1012.1
20260507010448 46 234 7.0 9.6 0.00 0.02 0.00 80 1012.1
20260507010147 46 233 7.0 9.6 0.00 0.02 0.00 80 1012.1
20260507005846 46 225 7.8 9.6 0.00 0.02 0.00 80 1012.1
20260507005545 46 225 7.0 8.7 0.00 0.02 0.00 79 1012.1
20260507005244 46 226 7.0 8.7 0.00 0.02 0.00 79 1012.2
20260507004944 46 225 6.1 8.7 0.00 0.02 0.00 79 1012.2
20260507004643 46 225 7.0 9.6 0.00 0.02 0.00 79 1012.2
20260507004342 46 225 6.1 9.6 0.00 0.02 0.00 79 1012.2
20260507004041 46 226 7.0 10.4 0.00 0.02 0.00 80 1012.1
20260507003740 47 228 7.8 11.3 0.00 0.02 0.00 80 1012.1
20260507003439 47 230 7.8 11.3 0.00 0.02 0.00 80 1012.2
20260507003138 47 230 7.8 11.3 0.00 0.02 0.00 80 1012.1
20260507002837 47 225 7.8 12.2 0.00 0.02 0.00 80 1012.1
20260507002534 47 227 8.7 12.2 0.00 0.02 0.00 80 1012.2
20260507002233 47 226 7.8 12.2 0.00 0.02 0.00 80 1012.1
20260507001932 47 227 7.8 10.4 0.00 0.02 0.00 79 1012.2
20260507001631 47 227 7.0 10.4 0.00 0.02 0.00 79 1012.2
20260507001330 47 226 7.8 10.4 0.00 0.02 0.00 79 1012.1
20260507001029 47 228 7.0 10.4 0.00 0.02 0.00 79 1012.1
20260507000728 48 227 7.8 10.4 0.00 0.02 0.00 79 1012.1
20260507000428 48 230 7.0 10.4 0.00 0.02 0.00 79 1012.2
20260507000127 48 227 6.1 9.6 0.00 0.02 0.00 78 1012.1
20260506235826 48 228 7.0 9.6 0.00 0.02 0.00 78 1012.1
20260506235525 48 229 7.8 9.6 0.00 0.02 0.00 78 1012.2
20260506235224 48 226 6.1 7.8 0.00 0.02 0.00 78 1012.2
20260506234923 48 237 6.1 8.7 0.00 0.02 0.00 78 1012.2
20260506234623 48 237 5.2 8.7 0.00 0.02 0.00 78 1012.3
20260506234322 48 229 6.1 8.7 0.00 0.02 0.00 78 1012.2
20260506234021 48 230 6.1 7.8 0.00 0.02 0.00 78 1012.2
20260506233720 48 228 6.1 7.8 0.00 0.02 0.00 78 1012.2
20260506233419 48 226 6.1 7.8 0.00 0.02 0.00 78 1012.3
20260506233118 48 229 6.1 7.8 0.00 0.02 0.00 78 1012.3
20260506232817 48 237 5.2 9.6 0.00 0.02 0.00 78 1012.2
20260506232516 48 233 6.1 9.6 0.00 0.02 0.00 77 1012.2
20260506232216 48 238 5.2 9.6 0.00 0.02 0.00 77 1012.2
20260506231912 48 242 6.1 9.6 0.00 0.02 0.00 77 1012.1
20260506231611 48 244 6.1 9.6 0.00 0.02 0.00 77 1012.2
20260506231310 48 248 5.2 7.8 0.00 0.02 0.00 77 1012.0
20260506231009 48 257 5.2 12.2 0.00 0.02 0.00 77 1012.0
20260506230708 49 240 5.2 12.2 0.00 0.02 0.00 77 1012.0
20260506230407 49 247 7.0 12.2 0.00 0.02 0.00 77 1012.0
20260506230106 49 234 7.0 10.4 0.00 0.02 0.00 77 1011.9
20260506225806 49 245 7.0 11.3 0.00 0.02 0.00 77 1011.9
20260506225505 49 245 7.0 11.3 0.00 0.02 0.00 77 1012.0
20260506225204 49 236 8.7 11.3 0.00 0.02 0.00 77 1011.9
20260506224903 49 239 8.7 11.3 0.00 0.02 0.00 77 1011.9
20260506224602 49 242 7.8 12.2 0.00 0.02 0.00 77 1011.9
20260506224301 49 236 7.8 12.2 0.00 0.02 0.00 77 1011.9
20260506224001 49 236 8.7 12.2 0.00 0.02 0.00 76 1011.9
20260506223700 49 238 8.7 12.2 0.00 0.02 0.00 76 1011.9
20260506223359 49 243 8.7 14.8 0.00 0.02 0.00 76 1011.8
20260506223058 49 239 8.7 16.5 0.00 0.02 0.00 76 1011.9
20260506222757 49 231 8.7 16.5 0.00 0.02 0.00 76 1011.8
20260506222456 49 244 8.7 16.5 0.00 0.02 0.00 75 1011.8
20260506222155 49 237 9.6 13.0 0.00 0.02 0.00 75 1011.9
20260506221855 49 231 8.7 13.9 0.00 0.02 0.00 75 1011.8
20260506221554 49 237 7.8 13.9 0.00 0.02 0.00 75 1011.8
20260506221253 49 240 8.7 15.6 0.00 0.02 0.00 75 1011.8
20260506220952 49 235 9.6 15.6 0.00 0.02 0.00 76 1011.7
20260506220651 49 235 11.3 15.6 0.00 0.02 0.00 75 1011.7
20260506220350 49 233 8.7 14.8 0.00 0.02 0.00 76 1011.8
20260506220049 49 230 10.4 15.6 0.00 0.02 0.00 76 1011.7
20260506215748 49 235 8.7 15.6 0.00 0.02 0.00 76 1011.7
20260506215445 49 240 8.7 15.6 0.00 0.02 0.00 76 1011.6
20260506215144 49 234 9.6 14.8 0.00 0.02 0.00 76 1011.6
20260506214843 49 239 9.6 14.8 0.00 0.02 0.00 77 1011.6
20260506214542 49 229 10.4 14.8 0.00 0.02 0.00 77 1011.6
20260506214241 49 230 10.4 14.8 0.00 0.02 0.00 77 1011.7
20260506213940 49 228 9.6 13.0 0.00 0.02 0.00 77 1011.6
20260506213639 49 231 9.6 13.0 0.00 0.02 0.00 78 1011.7
20260506213339 49 230 9.6 13.0 0.00 0.02 0.00 77 1011.6
20260506213038 49 229 8.7 13.9 0.00 0.02 0.00 77 1011.6
20260506212737 49 235 7.8 14.8 0.01 0.02 0.00 77 1011.6
20260506212436 49 233 9.6 14.8 0.01 0.02 0.00 77 1011.6
20260506212135 49 232 9.6 15.6 0.01 0.02 0.00 77 1011.5
20260506211834 49 232 9.6 15.6 0.01 0.02 0.00 76 1011.6
20260506211533 49 240 12.2 15.6 0.01 0.02 0.00 76 1011.4
20260506211232 49 236 10.4 15.6 0.01 0.02 0.00 76 1011.5
20260506210931 49 231 10.4 15.6 0.01 0.02 0.00 76 1011.5
20260506210631 49 234 9.6 14.8 0.01 0.02 0.00 75 1011.6
20260506210330 49 231 9.6 14.8 0.01 0.02 0.00 75 1011.6
20260506210029 50 231 8.7 14.8 0.01 0.02 0.00 75 1011.4
20260506205728 50 242 7.8 13.0 0.01 0.02 0.00 75 1011.4
20260506204825 49 241 7.8 17.4 0.01 0.02 0.00 74 1011.5
20260506204524 49 237 8.7 17.4 0.01 0.02 0.00 74 1011.3
20260506204224 49 245 9.6 17.4 0.00 0.01 0.00 74 1011.4
20260506203923 49 235 8.7 14.8 0.00 0.01 0.00 74 1011.4
20260506203622 49 241 8.7 14.8 0.00 0.01 0.00 73 1011.4
20260506203321 49 230 10.4 14.8 0.00 0.01 0.00 73 1011.2
20260506203020 50 232 8.7 13.0 0.00 0.01 0.00 72 1011.2
20260506202719 50 238 8.7 13.0 0.00 0.01 0.00 72 1011.1
20260506202418 51 238 8.7 13.0 0.00 0.01 0.00 70 1011.1
20260506202117 51 250 7.0 11.3 0.00 0.01 0.00 71 1011.1
20260506201817 50 246 8.7 11.3 0.00 0.01 0.00 74 1011.1
20260506201516 49 241 7.0 11.3 0.00 0.01 0.00 74 1011.0
20260506201215 49 238 7.8 11.3 0.00 0.01 0.00 74 1011.0
20260506200914 49 236 7.8 12.2 0.00 0.01 0.00 75 1011.0
20260506200613 49 234 7.8 14.8 0.00 0.01 0.00 74 1010.9
20260506200312 50 237 8.7 14.8 0.00 0.01 0.00 74 1010.9
20260506200011 50 235 8.7 14.8 0.00 0.01 0.00 74 1010.9
20260506195710 50 236 8.7 13.0 0.00 0.01 0.00 74 1010.9
20260506195410 50 230 9.6 13.9 0.00 0.01 0.00 73 1010.9
20260506195109 50 239 8.7 17.4 0.00 0.01 0.00 73 1011.0
20260506194808 50 238 8.7 17.4 0.00 0.01 0.00 73 1011.1
20260506194507 50 241 11.3 17.4 0.00 0.01 0.00 73 1010.9
20260506194206 50 241 10.4 16.5 0.00 0.01 0.00 73 1010.9
20260506193905 50 232 8.7 14.8 0.00 0.01 0.00 72 1010.9
20260506193604 50 241 10.4 14.8 0.00 0.01 0.00 72 1010.9
20260506193303 50 236 9.6 14.8 0.00 0.01 0.00 72 1010.8
20260506193003 50 234 9.6 14.8 0.00 0.01 0.00 72 1010.7
20260506192702 51 244 9.6 14.8 0.01 0.01 0.00 72 1010.6
20260506192401 51 235 11.3 15.6 0.01 0.01 0.00 71 1010.7
20260506192100 51 235 11.3 15.6 0.01 0.01 0.00 71 1010.6
20260506191759 51 232 11.3 15.6 0.01 0.01 0.00 71 1010.8
20260506191458 51 233 11.3 15.6 0.01 0.01 0.00 71 1010.8
20260506191157 51 236 11.3 14.8 0.01 0.01 0.00 70 1010.7
20260506190857 51 236 11.3 14.8 0.01 0.01 0.00 70 1010.6
20260506190556 51 238 9.6 13.9 0.01 0.01 0.00 70 1010.6
20260506190255 51 233 8.7 13.9 0.01 0.01 0.00 70 1010.7
20260506185954 51 238 7.8 13.9 0.01 0.01 0.00 71 1010.4
20260506185653 51 238 8.7 13.0 0.01 0.01 0.00 70 1010.6
20260506185352 51 240 8.7 14.8 0.01 0.01 0.00 70 1010.5
20260506185051 51 241 8.7 14.8 0.01 0.01 0.00 70 1010.5
20260506184750 51 241 9.6 16.5 0.01 0.01 0.00 69 1010.5
20260506184449 52 233 9.6 18.2 0.01 0.01 0.00 69 1010.5
20260506184148 52 240 11.3 18.2 0.01 0.01 0.00 69 1010.4
20260506183847 52 241 11.3 18.2 0.01 0.01 0.00 69 1010.4
20260506183546 52 240 10.4 17.4 0.00 0.00 0.00 68 1010.5
20260506183245 52 231 13.0 17.4 0.00 0.00 0.00 68 1010.4
20260506182943 52 270 0.0 11.3 0.00 0.00 0.00 68 1010.4
20260506182757 52 237 13.9 20.9 0.00 0.04 0.00 68 1010.4
20260506182456 52 236 14.8 19.1 0.00 0.04 0.00 68 1010.4
20260506182155 52 234 13.0 20.9 0.00 0.04 0.00 68 1010.3
20260506181854 52 233 13.9 21.7 0.00 0.04 0.00 68 1010.3
20260506181554 52 228 13.0 21.7 0.00 0.04 0.00 67 1010.2
20260506181253 52 229 17.4 21.7 0.00 0.04 0.00 67 1010.1
20260506180952 52 231 14.8 20.0 0.00 0.04 0.00 67 1010.1
20260506180651 53 233 14.8 18.2 0.00 0.04 0.00 66 1010.0
20260506180350 53 232 10.4 19.1 0.00 0.04 0.00 67 1010.0
20260506180049 53 235 10.4 19.1 0.00 0.04 0.00 67 1010.0
20260506175749 52 231 13.0 20.0 0.00 0.04 0.00 68 1010.0
20260506175448 52 229 13.0 20.0 0.00 0.04 0.00 69 1009.9
20260506175147 52 226 15.6 20.0 0.00 0.04 0.00 68 1009.9
20260506174846 53 231 13.9 20.0 0.00 0.04 0.00 68 1009.9
20260506174545 53 228 13.0 19.1 0.00 0.04 0.00 67 1009.8
20260506174244 53 233 13.9 19.1 0.00 0.04 0.00 67 1009.7
20260506173943 53 230 11.3 19.1 0.00 0.04 0.00 67 1009.6
20260506173642 53 234 13.0 19.1 0.00 0.04 0.00 65 1009.5
20260506173342 53 234 11.3 20.9 0.00 0.04 0.00 66 1009.4
20260506173041 53 239 13.9 26.1 0.00 0.04 0.00 65 1009.2
20260506172740 53 248 15.6 26.1 0.00 0.04 0.00 65 1009.1
20260506172439 53 247 16.5 26.1 0.00 0.04 0.00 65 1009.0
20260506172138 53 252 15.6 24.3 0.00 0.04 0.00 65 1008.8
20260506171837 53 256 15.6 23.5 0.00 0.04 0.00 66 1008.8
20260506171536 53 252 16.5 25.2 0.00 0.04 0.00 65 1008.7
20260506171236 53 242 14.8 26.1 0.00 0.04 0.00 66 1008.7
20260506170935 53 249 15.6 26.1 0.00 0.04 0.00 65 1008.6
20260506170634 54 262 17.4 26.1 0.00 0.04 0.00 64 1008.6
20260506170333 54 258 17.4 25.2 0.00 0.04 0.00 65 1008.6
20260506170032 54 244 15.6 22.6 0.00 0.04 0.00 65 1008.7
20260506165731 54 250 13.9 26.1 0.00 0.04 0.00 65 1008.7
20260506165430 54 253 15.6 26.1 0.00 0.04 0.00 65 1008.7
20260506165129 54 255 17.4 26.9 0.00 0.04 0.00 65 1008.7
20260506164828 54 261 15.6 29.5 0.00 0.04 0.00 65 1008.5
20260506164527 54 264 19.1 29.5 0.00 0.04 0.00 64 1008.7
20260506164227 55 257 20.0 29.5 0.00 0.04 0.00 64 1008.4
20260506163926 55 245 17.4 28.7 0.00 0.04 0.00 65 1008.5
20260506163625 55 255 13.9 28.7 0.00 0.04 0.00 66 1008.6
20260506163324 55 235 18.2 28.7 0.00 0.04 0.00 67 1008.5
20260506163023 55 228 16.5 22.6 0.00 0.04 0.00 70 1008.5
20260506162722 55 231 15.6 21.7 0.00 0.04 0.00 70 1008.5
20260506162421 55 235 10.4 20.9 0.00 0.04 0.00 70 1008.6
20260506162120 55 250 13.0 20.9 0.00 0.04 0.00 70 1008.5
20260506161819 55 232 15.6 20.9 0.00 0.04 0.00 70 1008.4
20260506161518 55 251 13.0 21.7 0.00 0.04 0.00 70 1008.4
20260506161217 55 262 13.0 27.8 0.00 0.04 0.00 70 1008.2
20260506160916 55 249 13.9 27.8 0.00 0.04 0.00 70 1008.1
20260506160616 55 238 18.2 27.8 0.00 0.04 0.00 69 1008.0
20260506160315 56 244 17.4 26.1 0.00 0.04 0.00 67 1008.1
20260506160014 56 248 17.4 26.9 0.01 0.04 0.00 67 1007.9
20260506155713 57 252 16.5 28.7 0.01 0.04 0.00 66 1008.1
20260506155412 57 247 17.4 29.5 0.01 0.04 0.00 65 1008.0
20260506155111 57 242 20.9 29.5 0.01 0.04 0.00 64 1008.1
20260506154810 58 232 20.9 29.5 0.00 0.03 0.00 64 1008.1
20260506154509 59 237 18.2 29.5 0.00 0.03 0.00 63 1007.9
20260506154209 61 232 20.0 29.5 0.00 0.03 0.00 61 1007.9
20260506153908 62 225 11.3 17.4 0.00 0.03 0.00 64 1007.4
20260506153607 62 223 13.0 17.4 0.00 0.03 0.00 63 1007.2
20260506153306 62 225 14.8 17.4 0.00 0.03 0.00 61 1007.1
20260506153005 63 221 10.4 15.6 0.00 0.03 0.00 61 1007.0
20260506152704 63 207 10.4 15.6 0.00 0.03 0.00 61 1006.9
20260506152403 63 217 10.4 15.6 0.00 0.03 0.00 61 1006.8
20260506152102 63 216 11.3 15.6 0.00 0.03 0.00 59 1006.6
20260506151801 63 213 10.4 15.6 0.00 0.03 0.00 59 1006.6
20260506151500 63 217 9.6 15.6 0.00 0.03 0.00 58 1006.6
20260506151159 63 215 9.6 15.6 0.00 0.03 0.00 58 1006.5
20260506150858 63 216 9.6 14.8 0.00 0.03 0.00 56 1006.6
20260506150557 63 212 8.7 14.8 0.00 0.03 0.00 58 1006.6
20260506150303 63 211 9.6 13.0 0.00 0.03 0.00 57 1006.7
20260506145956 63 207 8.7 12.2 0.00 0.03 0.00 58 1006.6
20260506145655 63 212 7.8 12.2 0.00 0.03 0.00 60 1006.9
20260506145354 63 215 6.1 10.4 0.00 0.03 0.00 58 1006.7
20260506145053 63 206 5.2 10.4 0.00 0.03 0.00 57 1006.7
20260506144752 63 202 5.2 10.4 0.00 0.03 0.00 58 1006.6
20260506144451 63 221 7.0 10.4 0.00 0.03 0.00 58 1006.7
20260506144151 63 210 7.0 9.6 0.00 0.03 0.00 59 1006.7
20260506143850 63 227 6.1 7.8 0.00 0.03 0.00 59 1006.8
20260506143549 63 216 4.3 7.8 0.00 0.03 0.00 59 1006.7
20260506143248 63 181 2.6 7.0 0.00 0.03 0.00 64 1006.7
20260506142947 62 210 3.5 7.8 0.00 0.03 0.00 65 1006.9
20260506142646 62 207 2.6 9.6 0.00 0.03 0.00 66 1007.0
20260506142345 62 213 5.2 10.4 0.00 0.03 0.00 66 1006.9
20260506142044 62 212 7.0 12.2 0.00 0.03 0.00 67 1007.0
20260506141744 62 208 6.1 13.9 0.00 0.03 0.00 68 1006.9
20260506141443 62 203 6.1 13.9 0.00 0.03 0.00 68 1007.0
20260506141142 62 210 8.7 13.9 0.00 0.03 0.00 69 1007.1
20260506140841 62 211 8.7 12.2 0.00 0.03 0.00 70 1007.1
20260506140540 61 223 7.8 10.4 0.00 0.03 0.00 72 1007.0
20260506140239 60 212 6.1 10.4 0.00 0.03 0.00 72 1007.0
20260506135939 60 219 7.0 10.4 0.02 0.03 0.00 71 1007.0
20260506135638 60 220 7.0 10.4 0.01 0.02 0.00 71 1007.1
20260506135337 59 214 6.1 11.3 0.01 0.02 0.00 72 1007.2
20260506135036 59 209 7.0 11.3 0.01 0.02 0.00 71 1007.3
20260506134735 59 211 6.1 11.3 0.01 0.02 0.00 71 1007.2
20260506134434 60 223 4.3 10.4 0.01 0.02 0.00 71 1007.2
20260506134133 60 223 2.6 10.4 0.00 0.01 0.00 72 1007.2
20260506133832 59 219 5.2 10.4 0.00 0.01 0.00 70 1007.2
20260506133531 60 167 3.5 11.3 0.00 0.01 0.00 68 1007.2
20260506133230 60 96 2.6 11.3 0.00 0.01 0.00 67 1007.0
20260506132929 61 200 5.2 11.3 0.00 0.01 0.00 66 1007.1
20260506132628 61 132 3.5 7.0 0.00 0.01 0.00 63 1007.0
20260506132328 61 218 3.5 6.1 0.00 0.01 0.00 64 1007.0
20260506132027 61 245 1.7 6.1 0.00 0.01 0.00 60 1007.0
20260506131726 60 292 1.7 6.1 0.00 0.01 0.00 60 1007.0
20260506131425 60 313 1.7 6.1 0.00 0.01 0.00 57 1006.9
20260506131124 61 311 3.5 6.1 0.00 0.01 0.00 58 1006.8
20260506130823 61 313 2.6 6.1 0.00 0.01 0.00 56 1006.6
20260506130522 61 307 3.5 6.1 0.00 0.01 0.00 56 1006.6
20260506130221 61 311 3.5 5.2 0.00 0.01 0.00 56 1006.6
20260506125920 62 311 2.6 5.2 0.00 0.00 0.00 55 1006.6
20260506125620 62 7 2.6 4.3 0.00 0.00 0.00 54 1006.5
20260506125319 62 51 2.6 5.2 0.00 0.00 0.00 53 1006.5
20260506125018 62 18 1.7 6.1 0.00 0.00 0.00 53 1006.5
20260506124717 62 39 3.5 7.0 0.00 0.00 0.00 52 1006.4
20260506124416 62 63 3.5 7.0 0.00 0.00 0.00 52 1006.5
20260506124115 63 67 3.5 7.0 0.00 0.00 0.00 51 1006.6
20260506123814 63 23 1.7 5.2 0.00 0.00 0.00 50 1006.6
20260506123513 63 9 0.9 5.2 0.00 0.00 0.00 50 1006.7
20260506123213 64 81 3.5 5.2 0.00 0.00 0.00 49 1006.7
20260506122912 64 76 2.6 6.1 0.00 0.00 0.00 51 1006.6
20260506122611 64 46 1.7 7.8 0.00 0.00 0.00 51 1006.7
20260506122310 64 87 3.5 7.8 0.00 0.00 0.00 51 1006.7
20260506122009 63 85 3.5 7.8 0.00 0.00 0.00 52 1006.8
20260506121708 63 6 1.7 5.2 0.00 0.00 0.00 52 1006.8
20260506121407 63 26 2.6 5.2 0.00 0.00 0.00 51 1006.6
20260506121106 63 25 1.7 8.7 0.00 0.00 0.00 51 1006.6
20260506120806 63 0 2.6 8.7 0.00 0.00 0.00 51 1006.7
20260506120505 63 30 4.3 8.7 0.00 0.00 0.00 52 1006.7
20260506120204 63 50 3.5 8.7 0.00 0.00 0.00 52 1006.5
20260506115903 63 61 4.3 8.7 0.00 0.02 0.00 51 1006.6
20260506115602 64 80 2.6 7.0 0.00 0.02 0.00 52 1006.6
20260506115301 64 48 3.5 7.0 0.00 0.02 0.00 50 1006.7
20260506115000 64 94 4.3 7.0 0.00 0.02 0.00 51 1006.8
20260506114659 64 68 2.6 5.2 0.00 0.02 0.00 50 1006.9
20260506114358 64 98 2.6 6.1 0.00 0.02 0.00 50 1006.8
20260506114057 65 70 2.6 7.8 0.00 0.02 0.00 49 1006.8
20260506113756 64 95 2.6 8.7 0.00 0.02 0.00 50 1006.9
20260506113455 63 73 2.6 8.7 0.00 0.02 0.00 51 1006.8
20260506113155 63 61 5.2 8.7 0.00 0.02 0.00 50 1006.9
20260506112854 64 80 4.3 7.8 0.00 0.02 0.00 50 1006.8
20260506112553 64 73 4.3 15.6 0.00 0.02 0.00 49 1006.9
20260506112252 64 101 2.6 15.6 0.00 0.02 0.00 51 1007.0
20260506111951 63 65 6.1 15.6 0.00 0.02 0.00 50 1006.8
20260506111650 63 80 4.3 8.7 0.00 0.02 0.00 49 1006.9
20260506111349 63 58 2.6 7.0 0.00 0.02 0.00 50 1006.9
20260506111048 63 54 3.5 7.8 0.00 0.02 0.00 48 1007.0
20260506110747 63 20 4.3 10.4 0.00 0.02 0.00 48 1007.1
20260506110447 63 38 4.3 10.4 0.00 0.02 0.00 49 1007.1
20260506110146 63 54 6.1 10.4 0.00 0.02 0.00 49 1007.0
20260506105845 65 53 6.1 9.6 0.00 0.02 0.00 46 1007.2
20260506105544 66 28 3.5 8.7 0.00 0.02 0.00 48 1007.2
20260506105243 64 163 2.6 8.7 0.00 0.02 0.00 49 1007.3
20260506104942 64 64 4.3 8.7 0.00 0.02 0.00 49 1007.4
20260506104641 64 56 4.3 7.0 0.00 0.02 0.00 51 1007.4
20260506104340 64 255 2.6 5.2 0.00 0.02 0.00 50 1007.4
20260506104040 63 53 1.7 7.0 0.00 0.02 0.00 49 1007.6
20260506103739 64 78 3.5 7.0 0.00 0.02 0.00 51 1007.6
20260506103438 63 9 3.5 7.0 0.00 0.02 0.00 52 1007.4
20260506103137 64 333 2.6 7.0 0.00 0.02 0.00 51 1007.6
20260506102836 63 319 3.5 7.0 0.00 0.02 0.00 53 1007.6
20260506102535 63 326 3.5 7.8 0.00 0.02 0.00 52 1007.6
20260506102234 63 302 1.7 7.8 0.00 0.02 0.00 52 1007.6
20260506101933 62 334 4.3 7.8 0.00 0.02 0.00 52 1007.6
20260506101633 63 20 3.5 7.8 0.00 0.02 0.00 52 1007.7
20260506101332 62 356 2.6 5.2 0.00 0.02 0.00 54 1007.7
20260506101031 62 323 2.6 7.0 0.00 0.02 0.00 51 1007.8
20260506100128 62 67 4.3 7.0 0.00 0.02 0.00 52 1007.8
20260506095828 62 34 2.6 6.1 0.00 0.02 0.00 54 1007.9
20260506095527 62 75 3.5 7.8 0.00 0.02 0.00 52 1007.9
20260506095226 62 77 1.7 7.8 0.00 0.02 0.00 53 1007.8
20260506094925 61 53 3.5 7.8 0.00 0.02 0.00 52 1007.8
20260506094624 62 83 0.9 5.2 0.00 0.02 0.00 56 1008.0
20260506094323 62 328 2.6 7.8 0.00 0.02 0.00 53 1007.8
20260506094022 63 46 3.5 7.8 0.00 0.02 0.00 51 1007.9
20260506093721 63 85 4.3 7.8 0.00 0.02 0.00 53 1007.7
20260506093421 62 84 1.7 5.2 0.00 0.02 0.00 53 1007.8
20260506093119 61 99 3.5 5.2 0.00 0.02 0.00 54 1007.8
20260506092819 61 349 1.7 5.2 0.00 0.02 0.00 54 1007.8
20260506092517 61 17 2.6 5.2 0.00 0.02 0.00 53 1007.8
20260506092216 61 14 2.6 5.2 0.00 0.02 0.00 54 1008.0
20260506091915 61 311 0.9 3.5 0.00 0.02 0.00 56 1008.0
20260506091614 61 308 0.9 4.3 0.00 0.02 0.00 56 1008.0
20260506091314 61 98 1.7 4.3 0.00 0.02 0.00 56 1008.0
20260506091013 60 100 2.6 4.3 0.00 0.02 0.00 57 1007.9
20260506090712 59 74 2.6 6.1 0.00 0.02 0.00 58 1008.0
20260506090411 59 336 0.9 6.1 0.00 0.02 0.00 57 1007.9
20260506090110 59 41 3.5 6.1 0.00 0.02 0.00 58 1007.7
20260506085809 59 37 2.6 5.2 0.00 0.02 0.00 58 1007.7
20260506085508 59 23 2.6 4.3 0.00 0.02 0.00 57 1007.8
20260506085208 59 356 1.7 4.3 0.00 0.02 0.00 59 1007.9
20260506084906 59 25 2.6 4.3 0.00 0.02 0.00 58 1008.1
20260506084606 59 265 1.7 4.3 0.00 0.02 0.00 58 1008.0
20260506084305 59 314 2.6 4.3 0.00 0.02 0.00 59 1008.0
20260506084004 59 293 1.7 5.2 0.00 0.02 0.00 59 1008.0
20260506083703 59 287 0.9 5.2 0.00 0.02 0.00 58 1008.0
20260506083402 59 311 2.6 5.2 0.00 0.02 0.00 59 1008.1
20260506083101 59 260 1.7 5.2 0.00 0.02 0.00 59 1008.1
20260506082800 60 253 1.7 4.3 0.00 0.02 0.00 57 1008.2
20260506082500 60 263 3.5 4.3 0.00 0.02 0.00 57 1008.2
20260506082159 59 18 0.9 3.5 0.00 0.02 0.00 58 1008.0
20260506081858 59 330 0.9 3.5 0.00 0.02 0.00 58 1008.0
20260506081256 59 299 1.7 4.3 0.00 0.02 0.00 58 1007.9
20260506080955 58 304 1.7 4.3 0.00 0.02 0.00 59 1008.0
20260506080353 58 239 1.7 3.5 0.00 0.02 0.00 61 1008.0
20260506073344 58 25 0.9 2.6 0.00 0.02 0.00 61 1008.1
20260506073043 57 331 0.9 3.5 0.00 0.02 0.00 61 1008.1
20260506072742 57 316 0.9 3.5 0.00 0.02 0.00 62 1008.2
20260506072441 57 293 0.9 4.3 0.00 0.02 0.00 63 1008.1
20260506072141 58 272 1.7 4.3 0.00 0.02 0.00 63 1008.3